Other Public Products
Issued by NWS Grand Forks, ND

Home | Current Version | Previous Version | Text Only | Print | Product List | Glossary On
Versions: 1 2 3 4 5 6 7 8 9 10 11 12 13 14 15 16 17 18 19 20 21 22 23 24 25 26 27 28 29 30 31 32 33 34 35 36 37 38 39 40 41 42 43 44 45 46 47 48 49 50
000
FPUS83 KFGF 302031
OPUFGF
PRAIRIE TO PINES WEATHER ROUNDUP
NATIONAL WEATHER SERVICE EASTERN NORTH DAKOTA/GRAND FORKS ND
300 PM CDT SUN AUG 30 2015

 **SATELLITE DATA USED TO AUGMENT SKY COVER AT AUTOMATED STATIONS**
 *****  WEATHER ACROSS EASTERN NORTH DAKOTA  *****

CITY           SKY/WX    TMP DP  RH WIND       PRES   REMARKS
GRAND FORKS    CLOUDY    87  69  54 S14G22    29.70F HX  91
GRAND FORKS AF SUNNY     86  69  56 S18       29.70F HX  90
GRAND CITY NWS   N/A     84 N/A N/A S13         N/A
BUXTON         NOT AVBL
DEVILS LAKE    MOSUNNY   88  66  48 SE17      29.65F HX  90
FARGO          SUNNY     87  66  49 S16G26    29.76F
WAHPETON ARPT  CLEAR     86  63  45 S18       29.80F
$$

 *****  WEATHER ACROSS CENTRAL AND WESTERN NORTH DAKOTA  *****

CITY           SKY/WX    TMP DP  RH WIND       PRES   REMARKS
JAMESTOWN      MOSUNNY   84  67  56 S14G24    29.72F
BISMARCK       PTSUNNY   92  60  34 S13       29.65F HX  91
MINOT          PTSUNNY   90  52  27 SW13      29.62R
MINOT AFB      PTSUNNY   94  55  26 S9        29.60S HX  92
GARRISON         N/A     90  54  29 W12G23    29.67R
WILLISTON      CLOUDY    84  46  26 N18       29.71F
DICKINSON      PTSUNNY   91  47  21 NW13      29.71F
HETTINGER      MOSUNNY   98  46  17 NW8       29.73F HX  94
$$

 *****  OTHER OBSERVATIONS NORTHEAST NORTH DAKOTA  *****

CITY           SKY/WX    TMP DP  RH WIND       PRES   REMARKS
WALHALLA       FAIR      84  72  65 MISG      29.64F
LANGDON        FAIR      95  59  30 S21G28    29.67F HX  94
CAVALIER       FAIR      86  70  58 S9        29.66F HX  90
GRAFTON        FAIR      86  70  58 S17G24    29.68F HX  90
CANDO          FAIR      91  66  43 S16G25    29.64F HX  94
FORT TOTTEN      N/A     89  65  45 S10       29.95S HX  91
ROLLA            N/A     95  55  26 S24       29.64F HX  93
RUGBY          FAIR      95  57  28 S21G32    29.61F HAZE    HX  94
 ***** THE ABOVE OBSERVATIONS ARE NON NWS ARE NOT QUALITY
        CONTROLLED AND MAY MIS-REPORT RAIN FOR SNOW...
$$

 *****  OTHER OBSERVATIONS SOUTHEAST NORTH DAKOTA *****

CITY           SKY/WX    TMP DP  RH WIND       PRES   REMARKS
COOPERSTOWN    NOT AVBL
VALLEY CITY    FAIR      86  66  51 S17G25    29.74F
OAKES            N/A     86  81  84 S16G22    29.76F HX 102
GWINNER        FAIR      88  66  48 S15       29.77F HX  90
SHEYENNE NWR     N/A     89  66  46 S13       29.95S HX  91
BUFFALO        NOT AVBL
WYNDMERE         N/A     88  70  55 S12         N/A  HX  92
 ***** THE ABOVE OBSERVATIONS ARE NON NWS ARE NOT QUALITY
       CONTROLLED AND MAY MIS-REPORT RAIN FOR SNOW...
$$

  *****  WEATHER ACROSS NORTHERN MINNESOTA  *****

CITY           SKY/WX    TMP DP  RH WIND       PRES   REMARKS
FLAG ISLAND    MOSUNNY   73  66  78 SE12      29.75F
WARROAD        MOSUNNY   84  73  70 S6        29.75F HX  91
ROSEAU         MOSUNNY   88  73  62 S12       29.73F HX  96
HALLOCK        MOSUNNY   86  68  54 S20       29.68F
THF RVR FALLS  SUNNY    N/A N/A N/A SE13      29.74F
HALSTAD        NOT AVBL
FOSSTON        SUNNY     88  63  42 S15       29.79F
BAUDETTE       MOSUNNY   84  68  58 S12       29.78F
WASKISH        PTSUNNY   81  70  69 SE5       29.80F
CROOKSTON      MOSUNNY   84  66  54 S20       29.73F
$$
  *****  WEATHER ACROSS CENTRAL AND WEST MINNESOTA  *****

CITY           SKY/WX    TMP DP  RH WIND       PRES   REMARKS
BEMIDJI        MOSUNNY   82  67  60 S13       29.82F
PARK RAPIDS    SUNNY     84  66  54 S14       29.85F
WADENA         SUNNY     81  66  61 S15       29.86F
DETROIT LAKES  SUNNY     81  66  61 S16       29.83F
MOORHEAD       SUNNY     84  66  54 S21       29.77F
FERGUS FALLS   SUNNY     82  70  65 S14       29.82F
ELBOW LAKE     FAIR      79  69  70 S15G22    29.85F
MORRIS MN      SUNNY     81  70  69 S16       29.85F
STAPLES        SUNNY     81  66  61 S12       29.87F
WHEATON        SUNNY     81  70  69 SE14G20   29.83F
$$
  *****  WEATHER ELSEWHERE ACROSS MINNESOTA  *****

CITY           SKY/WX    TMP DP  RH WIND       PRES   REMARKS
DULUTH         SUNNY     80  66  62 SW12      29.90F
INTRNTL FALLS  MOSUNNY   81  68  64 VRB5      29.82S
ELY            MOSUNNY   81  64  57 SW8       29.86F
CLOQUET        SUNNY     81  64  57 SW9       29.90F
BRAINERD       SUNNY     79  66  64 S12       29.90S
HIBBING        MOSUNNY   82  66  58 VRB6      29.87F
ALEXANDRIA     MOSUNNY   80  67  64 S17       29.90S
SAINT CLOUD    SUNNY     78  65  63 S15       29.91F
MINNEAPOLIS    MOSUNNY   79  63  57 S12       29.95F
$$

  *****  WEATHER ACROSS SOUTH DAKOTA  *****

CITY           SKY/WX    TMP DP  RH WIND       PRES   REMARKS
SIOUX FALLS    CLOUDY    75  65  70 S16       29.94F
BROOKINGS      SUNNY     77  66  69 S16       29.93F
WATERTOWN      SUNNY     81  67  62 S14       29.88F
HURON          SUNNY     84  67  56 SE16      29.82F
SISSETON         N/A     89  65  44 S12       29.80F HX  91
ABERDEEN       SUNNY     83  69  62 S18       29.78F
MITCHELL       SUNNY     83  70  64 S17       29.87F
PIERRE         PTSUNNY   98  52  21 S20G29    29.72F HX  95
MOBRIDGE       PTSUNNY   94  60  32 S18G30    29.68F HX  94
RAPID CITY     SUNNY     96  56  26 SE8       29.77F HX  94
$$

  *****  SOME WEATHER IN NEARBY STATES *****

CITY           SKY/WX    TMP DP  RH WIND       PRES   REMARKS
GLASGOW MT     MOSUNNY   78  52  40 E9        29.72F
GREAT FALLS MT PTSUNNY   74  41  30 W29G35    29.78F
CHEYENNE WY    SUNNY     91  34  13 W9        30.08F
SCOTTSBLUFF NE SUNNY     95  51  22 E6        29.91F HX  92
OMAHA NE       CLOUDY    74  65  73 S10       30.02F
DES MOINES IA  PTSUNNY   77  67  71 S3        30.03F
DAVENPORT IA   MOSUNNY   78  65  63 VRB5      30.05F
CHICAGO IL     PTSUNNY   74  61  63 CALM      30.05F
EAU CLAIRE WI  SUNNY     75  62  64 S10       29.99F
LA CROSSE WI   CLOUDY    74  64  71 S9        30.02F
$$

  *****  SOME NATIONAL WEATHER *****

CITY           SKY/WX    TMP DP  RH WIND       PRES   REMARKS
LA GUARDIA NY  PTSUNNY   85  66  53 S14G20    30.02F
RALEIGH NC     CLOUDY    84  59  42 VRB5      30.13S
ATLANTA GA     CLOUDY    74  66  76 E9        30.10F
NEW ORLEANS LA MOSUNNY   90  65  43 VRB5      30.02F HX  92
OKLAHOMA CITY  MOSUNNY   86  64  47 NW7       29.99F
ALBUQUERQUE NM MOSUNNY   86  46  24 W6        30.18F
SALT LAKE CITY PTSUNNY   84  47  27 N12       29.95F
LOS ANGELES CA MOSUNNY   79  67  66 W12       29.90F
BOISE ID       MOSUNNY   76  40  27 NW9       29.98F
SEATTLE WA     LGT RAIN  63  53  70 SW13G20   29.95R
$$

*** WEATHER ACROSS MANITOBA...SASKATCHEWAN AND ONTARIO ***
                ***ONTARIO***

CITY           SKY/WX    TMP DP  RH WIND       PRES   REMARKS
GERALDTON      CLOUDY    75  64  69 SW10      29.79F FOG
THUNDER BAY    PTSUNNY   79  66  65 E5        29.81F
SIOUX LOOKOUT  SUNNY     81  66  61 VRB6      29.80S
TORONTO        PTSUNNY   77  63  61 SE7       30.03F
BIG TROUT LK   CLOUDY    64  57  77 N7        29.80R
PICKLE LAKE    MOSUNNY   79  63  57 VRB6      29.77R
DRYDEN         SUNNY     81  66  61 S7        29.80F
KENORA         PTSUNNY   81  68  65 S10       29.78F
$$
                *** MANITOBA***

CITY           SKY/WX    TMP DP  RH WIND       PRES   REMARKS
BRANDON        PTSUNNY   93  68  43 SE13G18   29.58F HX  97
DAUPHIN        SUNNY     84  64  51 SE13G23   29.56F
ISLAND LAKE    CLOUDY    63  59  88 E6        29.79S
PILOT MOUND      N/A     97  52  21 S21G28      N/A  HX  94
THE PAS        CLOUDY    70  63  78 SE13      29.63F
THOMPSON       CLOUDY    59  50  72 E8        29.77S
WINNIPEG       PTSUNNY   84  72  65 SE15      29.65S
LYNN LAKE      MOSUNNY   55  48  76 MISG      29.66F
CHURCHILL      MOSUNNY   55  45  67 SE18      29.93F
GILLAM         CLOUDY    54  50  87 E6        29.86S
$$
                ***SASKATCHEWAN***

CITY           SKY/WX    TMP DP  RH WIND       PRES   REMARKS
ESTEVAN        CLOUDY    81  52  36 W17G25    29.72R SMOKE
KINDERSLEY     MOSUNNY   79  36  21 SW24G38   29.58F
LLOYDMINSTER   MOSUNNY   73  46  38 SW7       29.51S
PRINCE ALBERT  CLOUDY    68  54  60 S9        29.56R
REGINA         LGT RAIN  66  55  68 NW8       29.72R


USA.gov is the U.S. government's official web portal to all federal, state and local government web resources and services.